Date,TemperatureHighF,TemperatureAvgF,TemperatureLowF,DewpointHighF,DewpointAvgF,DewpointLowF,HumidityHigh,HumidityAvg,HumidityLow,PressureMaxIn,PressureMinIn,WindSpeedMaxMPH,WindSpeedAvgMPH,GustSpeedMaxMPH,PrecipitationSumIn
2013-10-1,80.1,59.8,43.3,58.3,50.2,41.9,98,75,38,29.88,29.74,8,2,0,0.00
2013-10-2,82.0,66.4,50.9,62.6,57.7,49.4,98,76,50,29.86,29.73,12,2,0,0.00
2013-10-3,79.3,63.3,49.5,59.0,53.1,48.4,99,74,35,29.99,29.87,6,1,0,0.00
2013-10-4,67.6,56.4,46.4,59.6,54.3,46.1,99,93,62,30.00,29.94,9,1,0,0.65
2013-10-5,72.5,62.9,57.7,63.3,59.1,56.3,99,88,72,30.03,29.95,7,2,0,0.09
2013-10-6,61.2,59.7,57.2,59.7,58.3,56.8,99,95,91,30.12,30.01,6,2,0,0.05
2013-10-7,75.7,67.6,57.7,71.4,65.4,57.4,99,93,81,30.02,29.75,14,3,0,0.15
2013-10-8,67.5,58.2,45.3,56.5,47.6,42.1,95,70,42,30.26,29.81,10,2,0,0.00
2013-10-9,64.4,52.6,43.2,47.2,44.6,41.0,98,77,49,30.35,30.26,10,3,0,0.00
2013-10-10,66.6,55.3,46.6,55.6,51.5,46.1,98,88,66,30.26,30.07,10,4,0,0.00
2013-10-11,69.3,58.9,48.2,57.8,53.5,45.4,98,83,65,30.06,29.99,11,4,0,0.00
2013-10-12,67.1,57.1,50.0,57.4,53.0,48.8,97,86,68,30.28,30.04,12,5,0,0.00
2013-10-13,62.4,52.4,38.8,50.3,46.8,37.9,98,83,60,30.34,30.26,10,3,0,0.00
2013-10-14,67.6,48.4,33.1,47.6,41.5,32.6,99,81,34,30.33,30.18,5,1,0,0.00
2013-10-15,73.0,54.3,41.7,52.0,47.4,40.9,99,81,43,30.19,30.08,7,1,0,0.00
2013-10-16,64.2,55.0,45.5,57.2,52.8,45.0,99,93,78,30.08,29.82,7,2,0,0.00
2013-10-17,72.1,61.1,52.0,61.9,58.0,51.7,99,91,69,29.83,29.63,9,2,0,0.00
2013-10-18,69.6,61.2,45.0,63.3,52.2,42.8,99,75,45,29.84,29.53,10,3,0,0.02
2013-10-19,65.8,52.4,37.4,50.9,43.8,36.6,99,75,44,29.91,28.69,6,1,0,0.00
2013-10-20,64.2,53.5,39.9,54.4,42.3,32.5,98,70,33,28.95,28.63,7,2,0,0.00
2013-10-21,68.7,46.9,33.4,46.0,40.8,32.4,98,81,36,29.05,28.95,5,1,0,0.00
2013-10-22,70.0,54.1,38.1,54.7,47.4,37.1,99,80,49,28.95,28.62,10,2,0,0.00
2013-10-23,54.7,45.4,36.0,40.2,37.0,33.8,98,74,46,28.75,28.53,5,1,0,0.00
2013-10-24,55.0,44.8,36.5,35.9,30.7,25.0,90,60,34,28.85,28.60,13,4,0,0.00
2013-10-25,51.8,39.8,29.7,34.1,29.0,26.3,88,67,42,29.11,28.86,14,2,0,0.00
2013-10-26,55.9,42.2,26.6,37.4,31.6,25.6,98,70,38,29.11,28.83,14,4,0,0.00
2013-10-27,58.6,47.2,34.2,41.1,34.7,29.5,96,64,40,29.03,28.76,9,2,0,0.01
2013-10-28,61.0,37.8,28.4,34.9,30.0,26.9,97,78,37,29.09,29.03,12,2,0,0.00
2013-10-29,52.0,41.3,28.4,29.3,26.4,24.1,92,59,34,29.37,29.26,6,2,0,0.00
2013-10-30,57.4,43.5,28.8,44.6,38.7,26.8,95,84,61,29.31,29.12,6,1,0,0.00
2013-10-31,62.8,50.6,33.3,61.2,48.5,32.0,98,93,81,29.19,28.76,8,2,0,0.07